www.pogodaiklimat.ru

Погода и климат >> Архив погоды >> Россия >> Волгоградская область >> Елань


ПОГОДА в Елани

  • Прогноз погоды в Елани
  • Монитор погоды в Елани

АРХИВ ПОГОДЫ в Елани

Время (UTC), дата Ветер
(напр.,м/с)
 
Видим.   Явления Облачность Т
(С)
Тd
(С)
f
(%)
Тe
(С)
Тes
(С)
Комфортность P
(гПа)
Po
(гПа)
Тmin
(С)
Tmax
(С)
R
(мм)
R24
(мм)
S
(см)
09 11.02 ЮВ 1 20 км 10/0
[Ac und]
-8.1 -10.8 81 -10 -9 1026.0 1008.5
12 11.02 ЮВ 4 20 км 3/0
[Ac trans]
-4.9 -9.6 70 -11 -10 1025.1 1007.9
15 11.02 ЮВ 3 20 км 8/0
[Ac trans]
-6.8 -10.6 74 -12 -12 1026.1 1008.8 -4.6
18 11.02 ЮВ 3 20 км 9/0
[Ac trans]
-8.4 -12.3 73 -14 -14 1026.4 1008.9
21 11.02 ЮВ 3 20 км 10/10 300 м
[Sc]
-8.6 -13.3 69 -14 -14 1026.3 1008.8
00 12.02 ЮВ 2 20 км 10/10 300 м
[Sc]
-8.1 -10.6 82 -13 -13 1026.4 1008.9
03 12.02 В 2 20 км 10/0
[Ac As]
-6.5 -11.1 70 -11 -11 1025.4 1008.1 -8.9 43
06 12.02 ЮВ 4 20 км 10/0
[Ac As]
-6.3 -11.3 68 -13 -12 1025.6 1008.2
09 12.02 ЮВ 4 20 км 10/0
[Ac cast Ci fib]
-4.9 -10.7 64 -11 -10 1026.3 1009.0
12 12.02 ЮВ 6 20 км 9/0
[Ac trans Ci fib]
-5.2 -11.5 61 -13 -12 1025.6 1008.3
15 12.02 ЮВ 3 20 км 6/0
[Ci fib]
-7.8 -12.8 67 -13 -13 1025.9 1008.4 -4.7
18 12.02 ЮВ 3 20 км 10/0
[Ac und]
-9.0 -14.7 63 -15 -15 1025.9 1008.4
21 12.02 ЮВ 4 20 км 8/0
[Ac As]
-9.1 -14.3 66 -16 -16 1025.9 1008.4
00 13.02 ЮВ 3 20 км 3/0
[Ci fib]
-10.2 -14.3 72 -16 -16 1025.0 1007.4
03 13.02 В 3 20 км 6/0
[Ci fib]
-9.6 -12.0 83 -15 -15 1024.1 1006.6 -10.5 43
06 13.02 ЮВ 6
{10}
20 км 8/0
[Ac lent]
-8.1 -10.4 83 -16 -16 1023.3 1005.9
09 13.02 ЮВ 8-13
{13}
20 км 9/0
[Ac cast]
-6.2 -8.8 82 -15 -15 1021.7 1004.5
12 13.02 Ю 6
{13}
20 км 10/0
[Ac As]
-3.0 -5.1 85 -10 -10 1021.4 1004.4
15 13.02 Ю 6
{11}
20 км 10/10 300 м
[Cb cap]
-2.1 -3.5 90 -9 -9 1021.5 1004.5 -2.1
18 13.02 Ю 4 4000 м дымка {ливн. осадки} [диам. гололёда 1 мм] 10/10 300 м
[Cb cap]
-1.3 -1.8 96 -7 -7 1021.6 1004.6
21 13.02 Ю 3 4000 м дымка [диам. гололёда 1 мм] 10/0
[Ac As]
-0.8 -1.4 96 -6 -6 1021.4 1004.5
00 14.02 Ю 3 4000 м дымка [диам. гололёда 1 мм] 10/0
[Ac As]
-0.7 -1.4 95 -6 -6 1020.5 1003.6
03 14.02 ЮЗ 4 4000 м слаб. ливневой снег 10/10 300 м
[Cb cap]
-1.0 -1.8 94 -7 -7 1021.1 1004.2 -2.1 0.0 42
06 14.02 З 5 20 км {ливн. осадки} 10/10 300 м
[Cb cap]
-2.4 -4.5 85 -9 -9 1023.0 1006.0 -2.5
09 14.02 З 5 20 км {ливн. осадки} 10/10 300 м
[Cb cap]
-2.4 -5.5 79 -9 -9 1024.8 1007.7
12 14.02 З 4 20 км {ливн. осадки} 8/8 600 м
[Sc diur, vesp]
-2.2 -7.5 67 -8 -8 1025.8 1008.7
15 14.02 СЗ 4 20 км 6/0
[Ac trans Ci fib]
-6.3 -9.9 76 -13 -13 1027.2 1009.9 -1.0 0.0
18 14.02 З 3 20 км ясно -9.2 -13.0 74 -15 -15 1028.3 1010.7
21 14.02 штиль 0 20 км ясно -12.6 -15.0 82 -13 -13 1029.1 1011.3
00 15.02 З 1 20 км ясно -15.1 -16.7 88 -18 -18 1029.6 1011.6
03 15.02 штиль 0 20 км [диам. изморози 4 мм] ясно -15.9 -17.6 87 -16 -16 1029.0 1010.9 -17.3 41
06 15.02 штиль 0 20 км [диам. изморози 4 мм] 10/0
[Ci]
-16.3 -18.6 82 -16 -15 1028.5 1010.5 -19.3
09 15.02 ЮЗ 1 20 км 10/0
[Ci]
-8.2 -11.9 75 -10 -6 1026.8 1009.3
12 15.02 ЮЗ 5 20 км 10/0
[Ci fib]
-5.6 -8.6 79 -13 -12 1023.3 1006.0
15 15.02 ЮЗ 5 20 км 10/0
[Ac lent Ci fib]
-4.8 -8.0 78 -12 -12 1019.0 1001.8 -4.6
18 15.02 ЮЗ 6
{10}
20 км 10/0
[Ac As]
-3.8 -6.4 82 -11 -11 1016.6 999.6
21 15.02 З 6
{10}
4000 м дымка 10/10 300 м
[Sc]
-2.6 -3.7 92 -10 -10 1014.3 997.4
00 16.02 З 6
{11}
4000 м дымка 10/10 300 м
[Sc]
-1.0 -2.0 93 -8 -8 1012.4 995.6
03 16.02 З 6
{10}
4000 м дымка 10/10 300 м
[Sc]
-0.3 -1.4 92 -7 -7 1011.3 994.6 -4.8 40
06 16.02 З 6 20 км 10/10 300 м
[Sc]
+0.1 -1.5 89 -7 -7 1011.3 994.6
09 16.02 З 5
{10}
20 км 10/0
[Ac As]
+1.1 -1.3 84 -5 -4 1011.2 994.6
12 16.02 З 6 20 км 10/0
[As op]
+1.5 -1.2 82 -5 -5 1010.9 994.3
15 16.02 З 5
{10}
20 км 10/0
[As trans]
+1.2 -1.3 83 -5 -5 1011.4 994.8 +1.5
18 16.02 СЗ 6
{10}
20 км 8/0
[Ac trans]
+1.1 -2.1 79 -5 -5 1012.2 995.6
21 16.02 З 5 20 км ясно -1.4 -4.0 82 -8 -8 1012.9 996.1
00 17.02 З 4 20 км ясно -4.4 -6.5 85 -11 -11 1012.5 995.5
03 17.02 ЮЗ 1 20 км 10/0
[Ac As]
-4.5 -5.3 94 -7 -7 1011.3 994.3 -5.8 39
06 17.02 ЮЗ 7-10
{10}
20 км 10/0
[As trans]
-0.5 -2.8 84 -8 -8 1008.5 991.8
09 17.02 ЮЗ 7-10
{14}
10 км слаб. снег 10/10 100 м
[Frnb Ns]
-0.1 -2.0 87 -7 -7 1004.5 987.9
12 17.02 ЮЗ 6-10
{13}
20 км {снег} 10/0
[As op]
+0.7 -1.9 83 -6 -5 1000.5 984.0
15 17.02 З 6
{11}
20 км 10/10 300 м
[Sc]
+1.2 -1.5 82 -5 -5 998.4 982.0 +1.3 0.0
18 17.02 З 7-10
{12}
20 км 10/10 300 м
[Sc]
+1.1 -1.5 83 -6 -6 997.7 981.3
21 17.02 З 7-10
{10}
20 км 8/0
[Ac cast]
0.0 -2.5 83 -7 -7 996.4 980.0
00 18.02 З 8-11
{12}
20 км 10/0
[Ac cast]
-0.8 -4.0 79 -8 -8 997.0 980.5
03 18.02 З 8-11
{12}
20 км 10/10 300 м
[Cb cap]
-0.8 -3.7 81 -8 -8 998.1 981.6 -0.9 39
06 18.02 СЗ 10-13
{13}
10 км слаб. ливневой снег 10/10 300 м
[Cb cap]
-1.0 -4.5 77 -9 -9 1000.3 983.7 -1.6

 

Местоположение метеостанции Елань (Волгоградская область, Россия): широта 50.95 долгота 43.73 высота над уровнем моря 133 м.

В архиве по умолчанию представлена погода в Елани за последнюю неделю. Архивные данные за месяц целиком и за предыдущие месяцы, начиная с января 2011 года, Вы можете получить, выбрав интересующий диапазон дат из раскрывающегося списка и нажав кнопку "Ввод!".


*Определитесь, кто Вы:
робот инопланетянин человек

Внимание! Время в таблицах - всемирное. Для получения местного времени необходимо прибавить поправку, которая равна 3 ч.

Смотрите также архив погоды в соседних городах и на ближайших метеорологических станциях:

Погода в Рудне (Волгоградская область, Россия) (60 км)
Погода в Даниловке (Волгоградская область, Россия) (70 км)
Погода в Балашове (Саратовская область, Россия) (78 км)
Погода в Калининске (Саратовская область, Россия) (80 км)
Погода в Новоаннинском (Волгоградская область, Россия) (87 км)
Погода в Михайловке (Волгоградская область, Россия) (102 км)
Погода в Росташах (Саратовская область, Россия) (103 км)
Погода в Сплавнухе (Саратовская область, Россия) (116 км)
Погода в Урюпинске (Волгоградская область, Россия) (123 км)
Погода в Борисоглебске (Воронежская область, Россия) (124 км)

Пояснения к столбцам:

Ветер - указаны скорость ветра в м/с - средняя за 10 мин, порывы в срок и между сроками (в фигурных скобках) и направление, откуда дует ветер: С - северный, СВ - северо-восточный, В - восточный, ЮВ - юго-восточный, Ю - южный, ЮЗ - юго-западный, З - западный, СЗ - северо-западный.
Видимость - горизонтальная дальность видимости в метрах или километрах. При видимости от 1 до 10 км при отсутствии осадков обычно наблюдается дымка, при ухудшении видимости до 1 км и менее - туман. В сухую погоду видимость может ухудшаться дымом, пылью или мглою.
Явления - указаны атмосферные явления, наблюдавшиеся в срок или в последний час перед сроком; фигурными скобками обозначены явления, наблюдавшиеся между сроками (за 1-3 часа до срока); квадратными скобками обозначены град или гололедные отложения с указанием их диаметра в мм.
Облачность - указаны через наклонную черту общая и нижняя облачность в баллах и высота нижней границы облаков в метрах; квадратными скобками обозначены формы облаков: Ci - перистые, Cs - перисто-слоистые, Cc - перисто-кучевые, Ac - высококучевые, As - высокослоистые, Sc - слоисто-кучевые, Ns - слоисто-дождевые, Cu - кучевые, Cb - кучево-дождевые. Подробнее классификацию облаков см. в Атласе облаков (PDF).
T - Температура воздуха - температура, измеренная на высоте 2 м над землей.
Td - Температура точки росы - температура, при понижении до которой содержащийся в воздухе водяной пар достигнет насыщения.
f - Относительная влажность воздуха - влажноcть воздуха, измеренная на высоте 2 м над землей.
Te - Эффективная температура - температура, которую ощущает одетый по сезону человек в тени. Характеристика душности погоды. При расчете учитывается влияние влажности воздуха и скорости ветра на теплоощущения человека.
Tes - Эффективная температура на солнце - температура, которую ощущает человек, с поправкой на солнечный нагрев. Характеристика знойности погоды. Зависит от высоты солнца над горизонтом, облачности и скорости ветра. Ночью, в пасмурную погоду, а также при ветре 12 м/с и более поправка равна нулю.
P - Атмосферное давление - приведенное к уровню моря атмосферное давление.
Po - Атмосферное давление - измеренное на уровне метеостанции атмосферное давление.
Tmin - Минимальная температура - минимум температуры воздуха на высоте 2 м над землей.
Tmax - Максимальная температура - максимум температуры воздуха на высоте 2 м над землей.
R - Количество осадков - Количество выпавших осадков за период времени, мм. При наведении курсора мыши на число - период времени, за который выпало указанное количество осадков.
R24 - Количество осадков - Количество выпавших осадков за 24 часа, мм.
S - Снежный покров - Высота снежного покрова, см. При наведении курсора мыши на число - состояние снежного покрова и степень покрытия местности в баллах.